| time (UTC) | temp C | wind direction | speed KPH | gust KPH | rain 1hr cm | rain 24hr cm | rain mn cm | humidity % | barometer mb |
| 20260504081556 | 11 | 174 | 0.0 | 1.6 | 0.00 | 0.00 | 0.00 | 79 | 1005.8 |
| 20260504044536 | 12 | 164 | 0.0 | 0.0 | 0.00 | 0.00 | 0.00 | 75 | 1007.6 |
| 20260504043037 | 13 | 164 | 0.0 | 0.0 | 0.00 | 0.00 | 0.00 | 73 | 1007.7 |
| 20260504041531 | 13 | 164 | 0.0 | 0.0 | 0.00 | 0.00 | 0.00 | 72 | 1007.8 |
| 20260504040031 | 13 | 164 | 0.0 | 0.0 | 0.00 | 0.00 | 0.00 | 71 | 1007.8 |
| 20260504034531 | 13 | 164 | 0.0 | 0.0 | 0.00 | 0.00 | 0.00 | 70 | 1007.9 |
| 20260504033030 | 14 | 164 | 0.0 | 0.0 | 0.00 | 0.00 | 0.00 | 69 | 1007.9 |
| 20260504031529 | 14 | 164 | 0.0 | 0.0 | 0.00 | 0.00 | 0.00 | 68 | 1008.0 |
| 20260504030029 | 14 | 164 | 0.0 | 0.0 | 0.00 | 0.00 | 0.00 | 67 | 1008.1 |
| 20260504024538 | 15 | 164 | 0.0 | 0.0 | 0.00 | 0.00 | 0.00 | 66 | 1008.1 |
| 20260504023028 | 15 | 164 | 0.0 | 0.0 | 0.00 | 0.00 | 0.00 | 64 | 1008.0 |
| 20260504021528 | 15 | 164 | 0.0 | 0.0 | 0.00 | 0.00 | 0.00 | 63 | 1008.0 |
| 20260504020028 | 16 | 164 | 0.0 | 1.6 | 0.00 | 0.00 | 0.00 | 61 | 1007.9 |
| 20260504014527 | 17 | 244 | 0.0 | 0.0 | 0.00 | 0.00 | 0.00 | 58 | 1007.8 |
| 20260504013035 | 17 | 244 | 0.0 | 1.6 | 0.00 | 0.00 | 0.00 | 56 | 1007.8 |
| 20260504011526 | 18 | 244 | 0.0 | 0.0 | 0.00 | 0.00 | 0.00 | 54 | 1007.6 |
| 20260504010025 | 18 | 248 | 0.0 | 11.3 | 0.00 | 0.00 | 0.00 | 52 | 1007.6 |
| 20260504004526 | 20 | 257 | 0.0 | 4.8 | 0.00 | 0.00 | 0.00 | 50 | 1007.6 |
| 20260504003038 | 20 | 274 | 0.0 | 11.3 | 0.00 | 0.00 | 0.00 | 48 | 1007.6 |
| 20260504001524 | 20 | 255 | 4.8 | 14.5 | 0.00 | 0.00 | 0.00 | 48 | 1007.7 |
| 20260504000024 | 21 | 262 | 0.0 | 22.5 | 0.00 | 0.00 | 0.00 | 46 | 1007.5 |
| 20260503234522 | 20 | 280 | 8.0 | 17.7 | 0.00 | 0.00 | 0.00 | 46 | 1007.6 |
| 20260503233024 | 20 | 218 | 4.8 | 17.7 | 0.00 | 0.00 | 0.00 | 47 | 1007.7 |
| 20260503231519 | 20 | 246 | 1.6 | 14.5 | 0.00 | 0.00 | 0.00 | 49 | 1007.7 |
| 20260503230024 | 20 | 261 | 0.0 | 14.5 | 0.00 | 0.00 | 0.00 | 48 | 1007.8 |
| 20260503224526 | 20 | 304 | 3.2 | 16.1 | 0.00 | 0.00 | 0.00 | 47 | 1007.9 |
| 20260503223015 | 20 | 272 | 4.8 | 14.5 | 0.00 | 0.00 | 0.00 | 46 | 1008.0 |
| 20260503221514 | 20 | 238 | 4.8 | 17.7 | 0.00 | 0.00 | 0.00 | 45 | 1008.0 |
| 20260503220019 | 20 | 275 | 3.2 | 20.9 | 0.00 | 0.00 | 0.00 | 44 | 1008.3 |
| 20260503214514 | 20 | 307 | 1.6 | 12.9 | 0.00 | 0.00 | 0.00 | 43 | 1008.3 |
| 20260503213011 | 20 | 265 | 4.8 | 17.7 | 0.00 | 0.00 | 0.00 | 43 | 1008.4 |
| 20260503211509 | 20 | 246 | 3.2 | 17.7 | 0.00 | 0.00 | 0.00 | 42 | 1008.4 |
| 20260503210009 | 20 | 238 | 1.6 | 20.9 | 0.00 | 0.00 | 0.00 | 42 | 1008.5 |
| 20260503204508 | 20 | 132 | 6.4 | 25.7 | 0.00 | 0.00 | 0.00 | 40 | 1008.8 |
| 20260503203007 | 19 | 296 | 6.4 | 20.9 | 0.00 | 0.00 | 0.00 | 42 | 1008.8 |
| 20260503201506 | 20 | 274 | 0.0 | 11.3 | 0.00 | 0.00 | 0.00 | 41 | 1009.2 |
| 20260503200006 | 20 | 271 | 6.4 | 19.3 | 0.00 | 0.00 | 0.00 | 39 | 1009.0 |
| 20260503194504 | 20 | 219 | 1.6 | 24.1 | 0.00 | 0.00 | 0.00 | 40 | 1009.3 |
| 20260503193002 | 20 | 313 | 1.6 | 16.1 | 0.00 | 0.00 | 0.00 | 38 | 1009.7 |
| 20260503191502 | 20 | 152 | 4.8 | 17.7 | 0.00 | 0.00 | 0.00 | 38 | 1009.9 |
| 20260503184616 | 20 | 64 | 6.4 | 24.1 | 0.00 | 0.00 | 0.00 | 37 | 1009.7 |
| 20260503183101 | 20 | 255 | 4.8 | 19.3 | 0.00 | 0.00 | 0.00 | 39 | 1010.1 |
| 20260503181557 | 19 | 117 | 4.8 | 20.9 | 0.00 | 0.00 | 0.00 | 37 | 1010.5 |
| 20260503180052 | 19 | 210 | 1.6 | 17.7 | 0.00 | 0.00 | 0.00 | 39 | 1010.7 |
| 20260503174546 | 19 | 241 | 1.6 | 11.3 | 0.00 | 0.00 | 0.00 | 42 | 1011.1 |
| 20260503173043 | 18 | 104 | 3.2 | 9.7 | 0.00 | 0.00 | 0.00 | 42 | 1011.7 |
| 20260503171602 | 17 | 129 | 3.2 | 11.3 | 0.00 | 0.00 | 0.00 | 45 | 1012.4 |